KE6LRO Weather Reports


time (UTC)temp
C
wind
direction
speed
KPH
gust
KPH
rain 1hr
cm
rain 24hr
cm
rain mn
cm
humidity
%
barometer
mb
20260505100957 0 350 0.0 0.0 0.00 0.00 0.00 90 1019.1
20260505100455 0 352 0.0 0.0 0.00 0.00 0.00 89 1018.9
20260505095951 1 314 0.0 0.0 0.00 0.00 0.00 90 1018.7
20260505095447 1 340 0.0 0.0 0.00 0.00 0.00 89 1018.7
20260505094944 1 340 0.0 0.0 0.00 0.00 0.00 87 1018.6
20260505094441 1 313 1.6 3.2 0.00 0.00 0.00 88 1018.5
20260505093937 1 317 1.6 1.6 0.00 0.00 0.00 87 1018.5
20260505093434 1 333 0.0 0.0 0.00 0.00 0.00 87 1018.4
20260505092931 1 331 0.0 0.0 0.00 0.00 0.00 86 1018.5
20260505092429 2 351 0.0 0.0 0.00 0.00 0.00 85 1018.5
20260505091926 2 315 0.0 1.6 0.00 0.00 0.00 85 1018.3
20260505091423 2 317 0.0 0.0 0.00 0.00 0.00 84 1018.3
20260505090921 2 337 0.0 0.0 0.00 0.00 0.00 84 1018.4
20260505090419 2 336 0.0 0.0 0.00 0.00 0.00 83 1018.3
20260505085916 3 339 0.0 1.6 0.00 0.00 0.00 83 1018.3
20260505085414 3 338 0.0 0.0 0.00 0.00 0.00 81 1018.3
20260505084912 3 355 0.0 0.0 0.00 0.00 0.00 80 1018.4
20260505084410 3 335 0.0 0.0 0.00 0.00 0.00 79 1018.5
20260505083908 3 334 0.0 0.0 0.00 0.00 0.00 79 1018.5
20260505083405 3 328 0.0 3.2 0.00 0.00 0.00 78 1018.3
20260505082901 4 332 0.0 0.0 0.00 0.00 0.00 77 1018.5
20260505082357 5 320 0.0 3.2 0.00 0.00 0.00 75 1018.3
20260505081854 5 329 0.0 0.0 0.00 0.00 0.00 75 1018.4
20260505081350 5 291 1.6 3.2 0.00 0.00 0.00 72 1018.4
20260505080847 5 352 0.0 1.6 0.00 0.00 0.00 73 1018.2
20260505080343 5 297 3.2 4.8 0.00 0.00 0.00 72 1018.4
20260505075839 5 352 0.0 3.2 0.00 0.00 0.00 74 1018.5
20260505075336 5 350 0.0 0.0 0.00 0.00 0.00 73 1018.4
20260505074833 5 19 1.6 3.2 0.00 0.00 0.00 74 1018.5
20260505074330 5 280 4.8 4.8 0.00 0.00 0.00 75 1018.5
20260505073828 5 348 0.0 1.6 0.00 0.00 0.00 72 1018.5
20260505073326 6 326 1.6 4.8 0.00 0.00 0.00 73 1018.3
20260505072822 6 284 1.6 4.8 0.00 0.00 0.00 69 1018.3
20260505072319 7 286 3.2 4.8 0.00 0.00 0.00 66 1018.3
20260505071814 7 185 4.8 8.0 0.00 0.00 0.00 62 1018.1
20260505071311 7 274 9.7 14.5 0.00 0.00 0.00 60 1018.1
20260505070809 6 308 3.2 3.2 0.00 0.00 0.00 68 1018.2
20260505070305 6 359 0.0 3.2 0.00 0.00 0.00 73 1018.2
20260505065800 6 351 0.0 0.0 0.00 0.00 0.00 73 1018.2
20260505065258 6 318 1.6 4.8 0.00 0.00 0.00 69 1018.4
20260505064755 6 352 3.2 8.0 0.00 0.00 0.00 67 1018.2
20260505064252 7 4 3.2 4.8 0.00 0.00 0.00 69 1018.3
20260505063750 7 334 1.6 3.2 0.00 0.00 0.00 65 1018.1
20260505063246 8 354 4.8 8.0 0.00 0.00 0.00 62 1018.2
20260505062742 8 249 1.6 4.8 0.00 0.00 0.00 56 1017.9
20260505062240 8 358 1.6 3.2 0.00 0.00 0.00 60 1017.7
20260505061737 8 8 1.6 3.2 0.00 0.00 0.00 57 1017.8
20260505061235 8 21 0.0 0.0 0.00 0.00 0.00 61 1017.8
20260505060732 8 341 1.6 3.2 0.00 0.00 0.00 59 1017.8
20260505060229 8 321 0.0 3.2 0.00 0.00 0.00 61 1017.9
20260505055724 9 307 1.6 3.2 0.00 0.00 0.00 56 1017.5
20260505055221 9 18 1.6 1.6 0.00 0.00 0.00 61 1017.7
20260505054718 8 41 3.2 4.8 0.00 0.00 0.00 58 1017.6
20260505054216 8 356 0.0 1.6 0.00 0.00 0.00 60 1017.5
20260505053714 8 156 8.0 9.7 0.00 0.00 0.00 60 1017.3
20260505053210 10 325 1.6 8.0 0.00 0.00 0.00 56 1017.5
20260505052707 9 215 4.8 8.0 0.00 0.00 0.00 57 1017.4
20260505052204 10 288 3.2 4.8 0.00 0.00 0.00 56 1017.2
20260505051701 11 243 4.8 11.3 0.00 0.00 0.00 52 1017.3
20260505051159 11 81 8.0 11.3 0.00 0.00 0.00 52 1017.3
20260505050657 11 319 1.6 1.6 0.00 0.00 0.00 53 1017.2
20260505050156 11 294 3.2 8.0 0.00 0.00 0.00 51 1017.2
20260505041631 12 246 11.3 12.9 0.00 0.00 0.00 48 1016.9
20260505041128 12 297 4.8 14.5 0.00 0.00 0.00 48 1016.9
20260505040625 12 172 4.8 17.7 0.00 0.00 0.00 46 1017.1
20260505040122 12 215 4.8 9.7 0.00 0.00 0.00 49 1016.7
20260505035618 11 292 3.2 4.8 0.00 0.00 0.00 50 1016.8
20260505035115 12 321 1.6 3.2 0.00 0.00 0.00 48 1016.5
20260505034612 13 281 4.8 11.3 0.00 0.00 0.00 47 1016.6
20260505034108 12 336 0.0 9.7 0.00 0.00 0.00 49 1016.5
20260505033605 12 327 3.2 3.2 0.00 0.00 0.00 48 1016.4
20260505033104 13 298 1.6 3.2 0.00 0.00 0.00 45 1016.5
20260505032601 13 336 3.2 3.2 0.00 0.00 0.00 44 1016.3
20260505032057 13 353 1.6 3.2 0.00 0.00 0.00 45 1016.4
20260505031555 13 261 3.2 12.9 0.00 0.00 0.00 45 1016.1
20260505031051 13 52 1.6 8.0 0.00 0.00 0.00 44 1016.2
20260505030548 13 330 0.0 9.7 0.00 0.00 0.00 45 1016.2
20260505030044 14 333 6.4 8.0 0.00 0.00 0.00 44 1016.1
20260505025540 14 298 3.2 9.7 0.00 0.00 0.00 42 1016.1
20260505025039 14 314 1.6 4.8 0.00 0.00 0.00 43 1015.8
20260505024535 15 309 3.2 4.8 0.00 0.00 0.00 44 1016.1
20260505024032 15 327 0.0 4.8 0.00 0.00 0.00 41 1015.9
20260505023529 15 338 4.8 8.0 0.00 0.00 0.00 41 1015.7
20260505023027 15 332 0.0 3.2 0.00 0.00 0.00 42 1015.6
20260505022525 15 356 4.8 9.7 0.00 0.00 0.00 41 1015.5
20260505022022 15 330 4.8 8.0 0.00 0.00 0.00 42 1015.4
20260505021518 15 350 1.6 8.0 0.00 0.00 0.00 43 1015.5
20260505021015 15 314 1.6 4.8 0.00 0.00 0.00 42 1015.4
20260505020514 15 276 4.8 9.7 0.00 0.00 0.00 43 1015.4
20260505020012 16 327 1.6 4.8 0.00 0.00 0.00 43 1015.2
20260505015509 16 0 1.6 4.8 0.00 0.00 0.00 40 1015.2
20260505015006 16 301 1.6 3.2 0.00 0.00 0.00 42 1015.1
20260505014503 16 337 0.0 8.0 0.00 0.00 0.00 43 1014.8
20260505014000 17 137 3.2 8.0 0.00 0.00 0.00 40 1015.1
20260505013457 17 310 4.8 4.8 0.00 0.00 0.00 39 1014.9
20260505012954 17 332 0.0 9.7 0.00 0.00 0.00 40 1014.8
20260505012452 17 325 3.2 4.8 0.00 0.00 0.00 40 1014.9
20260505011949 17 281 4.8 14.5 0.00 0.00 0.00 39 1014.9
20260505011445 17 309 1.6 3.2 0.00 0.00 0.00 39 1014.9
20260505010942 17 219 9.7 14.5 0.00 0.00 0.00 39 1014.7
20260505010437 17 359 3.2 8.0 0.00 0.00 0.00 39 1014.8
20260505005934 17 351 4.8 11.3 0.00 0.00 0.00 39 1014.8
20260505005431 17 259 4.8 4.8 0.00 0.00 0.00 40 1014.7
20260505004928 17 330 0.0 1.6 0.00 0.00 0.00 39 1014.7
20260505004425 18 315 3.2 8.0 0.00 0.00 0.00 41 1014.7
20260505003921 17 288 3.2 9.7 0.00 0.00 0.00 41 1014.7
20260505003419 17 359 1.6 1.6 0.00 0.00 0.00 40 1014.7
20260505002915 17 334 1.6 3.2 0.00 0.00 0.00 38 1014.8
20260505002411 18 215 6.4 9.7 0.00 0.00 0.00 39 1014.7
20260505001910 18 212 6.4 9.7 0.00 0.00 0.00 38 1014.7
20260505001407 18 276 6.4 9.7 0.00 0.00 0.00 39 1014.6
20260505000904 18 165 6.4 8.0 0.00 0.00 0.00 36 1014.8
20260505000402 18 321 0.0 4.8 0.00 0.00 0.00 37 1014.6
20260504235858 18 42 4.8 11.3 0.00 0.00 0.00 39 1014.6
20260504235355 18 68 1.6 4.8 0.00 0.00 0.00 39 1014.4
20260504234851 19 318 3.2 4.8 0.00 0.00 0.00 36 1014.5
20260504234349 18 346 0.0 4.8 0.00 0.00 0.00 36 1014.4
20260504233846 19 55 4.8 8.0 0.00 0.00 0.00 37 1014.4
20260504233341 20 10 1.6 3.2 0.00 0.00 0.00 36 1014.1
20260504232839 20 337 0.0 8.0 0.00 0.00 0.00 40 1014.1
20260504232336 20 266 6.4 8.0 0.00 0.00 0.00 37 1014.3
20260504231832 19 325 1.6 3.2 0.00 0.00 0.00 37 1014.3
20260504231329 19 354 8.0 11.3 0.00 0.00 0.00 36 1014.4
20260504230825 19 331 0.0 4.8 0.00 0.00 0.00 35 1014.2
20260504230323 19 335 9.7 12.9 0.00 0.00 0.00 36 1014.2
20260504225822 19 346 3.2 4.8 0.00 0.00 0.00 36 1014.3
20260504225317 18 326 11.3 25.7 0.00 0.00 0.00 36 1014.1
20260504224815 19 31 1.6 9.7 0.00 0.00 0.00 36 1014.1
20260504224312 19 274 4.8 12.9 0.00 0.00 0.00 37 1014.3
20260504223809 20 275 4.8 12.9 0.00 0.00 0.00 36 1014.1
20260504223304 19 320 1.6 8.0 0.00 0.00 0.00 36 1014.3
20260504222801 20 284 3.2 8.0 0.00 0.00 0.00 35 1014.2
20260504222258 20 348 3.2 4.8 0.00 0.00 0.00 35 1014.2
20260504221756 20 332 3.2 4.8 0.00 0.00 0.00 35 1014.3
20260504221253 19 3 1.6 1.6 0.00 0.00 0.00 35 1014.2
20260504220749 20 8 8.0 12.9 0.00 0.00 0.00 35 1014.3
20260504220246 20 347 8.0 11.3 0.00 0.00 0.00 34 1014.2
20260504215744 20 336 4.8 14.5 0.00 0.00 0.00 35 1014.2
20260504215240 20 340 1.6 16.1 0.00 0.00 0.00 36 1014.2
20260504214736 20 350 1.6 11.3 0.00 0.00 0.00 36 1014.4
20260504214232 21 348 11.3 14.5 0.00 0.00 0.00 34 1014.2
20260504213729 20 341 3.2 11.3 0.00 0.00 0.00 34 1014.5
20260504213226 20 312 1.6 11.3 0.00 0.00 0.00 36 1014.6
20260504212723 20 36 3.2 8.0 0.00 0.00 0.00 35 1014.6
20260504212220 20 338 8.0 12.9 0.00 0.00 0.00 35 1014.6
20260504211717 20 335 9.7 17.7 0.00 0.00 0.00 33 1014.6
20260504211213 20 323 4.8 9.7 0.00 0.00 0.00 35 1014.5
20260504210711 20 13 3.2 11.3 0.00 0.00 0.00 34 1014.6
20260504210207 20 316 8.0 12.9 0.00 0.00 0.00 34 1014.7
20260504205704 20 296 4.8 12.9 0.00 0.00 0.00 35 1014.6
20260504205201 20 310 1.6 12.9 0.00 0.00 0.00 35 1014.9
20260504204700 19 326 3.2 11.3 0.00 0.00 0.00 36 1014.7
20260504204159 20 331 1.6 11.3 0.00 0.00 0.00 34 1014.8
20260504203657 20 272 8.0 14.5 0.00 0.00 0.00 34 1014.8
20260504203154 20 337 0.0 1.6 0.00 0.00 0.00 34 1014.7
20260504202654 20 23 3.2 12.9 0.00 0.00 0.00 35 1014.9
20260504202152 20 330 3.2 4.8 0.00 0.00 0.00 38 1014.9
20260504201649 19 304 3.2 12.9 0.00 0.00 0.00 38 1014.9
20260504201146 19 33 6.4 11.3 0.00 0.00 0.00 35 1014.6
20260504200643 18 337 6.4 11.3 0.00 0.00 0.00 37 1014.9
20260504200140 19 319 8.0 12.9 0.00 0.00 0.00 36 1014.9
20260504195636 19 315 12.9 20.9 0.00 0.00 0.00 34 1014.8
20260504195132 18 250 8.0 16.1 0.00 0.00 0.00 36 1015.1
20260504194629 18 331 8.0 11.3 0.00 0.00 0.00 35 1014.9
20260504194125 19 350 9.7 12.9 0.00 0.00 0.00 35 1015.2
20260504193621 18 317 6.4 9.7 0.00 0.00 0.00 36 1015.1
20260504193120 18 1 4.8 4.8 0.00 0.00 0.00 36 1015.2
20260504192618 18 10 8.0 12.9 0.00 0.00 0.00 37 1015.2
20260504192115 17 0 1.6 11.3 0.00 0.00 0.00 38 1015.3
20260504191614 18 321 1.6 11.3 0.00 0.00 0.00 40 1015.3
20260504191109 18 345 1.6 11.3 0.00 0.00 0.00 36 1015.5
20260504190606 18 283 1.6 12.9 0.00 0.00 0.00 38 1015.5
20260504185559 18 330 0.0 11.3 0.00 0.00 0.00 38 1015.6
20260504185055 18 341 4.8 11.3 0.00 0.00 0.00 37 1015.8
20260504184551 18 307 12.9 14.5 0.00 0.00 0.00 35 1015.6
20260504184046 17 326 3.2 12.9 0.00 0.00 0.00 37 1015.7
20260504183544 17 346 3.2 9.7 0.00 0.00 0.00 37 1015.6
20260504183042 17 304 8.0 12.9 0.00 0.00 0.00 36 1015.8
20260504182538 17 327 1.6 3.2 0.00 0.00 0.00 36 1015.8
20260504182036 17 345 1.6 9.7 0.00 0.00 0.00 36 1016.1
20260504181533 17 337 1.6 12.9 0.00 0.00 0.00 37 1015.8
20260504181031 17 12 4.8 8.0 0.00 0.00 0.00 36 1015.8
20260504180530 17 346 0.0 3.2 0.00 0.00 0.00 38 1015.9
20260504180028 17 25 3.2 4.8 0.00 0.00 0.00 38 1016.2
20260504175525 17 32 1.6 3.2 0.00 0.00 0.00 37 1015.8
20260504175022 17 328 3.2 8.0 0.00 0.00 0.00 36 1016.1
20260504174520 16 14 1.6 9.7 0.00 0.00 0.00 38 1016.2
20260504174016 16 347 0.0 3.2 0.00 0.00 0.00 40 1016.1
20260504173513 16 337 1.6 8.0 0.00 0.00 0.00 37 1016.2
20260504173011 16 21 1.6 4.8 0.00 0.00 0.00 37 1016.2
20260504172507 17 6 4.8 4.8 0.00 0.00 0.00 37 1016.1
20260504172003 16 344 0.0 9.7 0.00 0.00 0.00 40 1016.2
20260504171500 17 328 3.2 4.8 0.00 0.00 0.00 38 1016.3
20260504170957 17 353 0.0 4.8 0.00 0.00 0.00 40 1016.1
20260504170453 16 316 1.6 8.0 0.00 0.00 0.00 38 1016.2
20260504160413 15 316 1.6 3.2 0.00 0.00 0.00 43 1016.7
20260504150837 10 342 0.0 0.0 0.00 0.00 0.00 71 1016.7
20260504150334 8 343 0.0 0.0 0.00 0.00 0.00 75 1016.9
20260504141304 2 342 0.0 0.0 0.00 0.00 0.00 99 1016.7
20260504140800 1 340 0.0 0.0 0.00 0.00 0.00 99 1016.7
20260504140256 1 326 0.0 0.0 0.00 0.00 0.00 99 1017.1
20260504130725 0 310 1.6 1.6 0.00 0.00 0.00 99 1016.3
20260504130220 0 343 0.0 0.0 0.00 0.00 0.00 99 1016.3
20260504120145 0 341 0.0 0.0 0.00 0.00 0.00 99 1015.7
20260504110612 0 336 0.0 0.0 0.00 0.00 0.00 99 1015.3
20260504110108 1 336 0.0 0.0 0.00 0.00 0.00 98 1015.1